Theta_e
330 331 330 329 328 329 330 331 330 329 328 326 326 323 325 330 333 338 340 342 347 346 343 347 350 348 347 347 343 339 341 343 343 345 345 345 345 346 348 347 346 345 346 349 349 347 348 348 350 352 354 354 353 353 353 349 346 346 344 342 345 348 352 353 353 353 353 353 354 354 354 353 352 351 351 350 349 349 349 349 350 350 350 349 349 350
331 329 330 330 329 329 329 329 328 329 329 326 325 323 321 328 334 336 339 341 345 346 340 343 349 349 349 350 344 340 343 343 343 344 343 344 347 347 347 345 344 344 344 347 347 346 348 349 350 352 352 351 350 349 348 344 342 344 343 343 346 349 352 354 354 354 354 354 354 354 354 352 352 353 352 352 351 350 350 350 351 350 350 350 350 350
330 330 331 331 329 329 329 329 329 329 328 326 325 322 320 328 332 334 343 345 345 348 342 343 352 353 354 355 350 346 347 346 342 343 343 344 347 346 344 344 344 344 345 345 346 347 348 350 350 351 350 350 349 347 346 344 343 344 342 343 348 350 352 355 355 355 355 355 354 353 354 353 353 354 353 353 352 351 351 351 351 351 351 350 350 350
327 331 333 330 328 329 329 329 329 329 328 326 324 321 320 325 326 329 343 347 346 350 346 346 353 356 358 358 355 350 349 348 344 343 345 345 345 344 343 345 344 344 345 346 347 349 349 350 350 351 351 350 349 349 348 345 343 344 344 344 347 349 350 352 354 355 356 354 353 353 353 353 354 353 353 353 352 351 350 350 351 350 350 350 350 350
328 330 331 329 328 329 329 330 330 327 325 325 325 322 321 323 325 330 340 341 344 348 346 347 349 354 362 358 355 353 348 348 346 345 346 345 344 344 344 345 346 345 345 346 350 353 353 351 351 352 352 351 350 350 350 349 347 346 347 347 348 348 349 351 352 354 356 355 353 353 354 354 353 353 353 352 351 350 349 349 349 349 350 350 350 350
329 329 329 329 330 329 327 329 328 324 322 322 325 325 323 325 325 327 334 334 337 339 341 346 343 348 362 357 355 358 357 352 347 345 345 345 344 344 345 344 345 345 343 344 348 351 353 352 353 353 351 349 348 349 351 351 348 346 346 348 349 349 350 351 351 353 356 356 356 355 355 354 353 353 352 352 351 350 350 350 350 350 350 350 350 350
330 329 329 329 330 328 327 327 326 325 321 318 324 327 325 328 326 325 328 328 330 333 338 343 342 345 357 359 359 361 359 354 349 347 346 346 345 343 344 344 345 345 344 344 344 346 348 348 350 349 348 347 344 344 348 346 343 343 345 347 350 351 352 351 351 352 354 356 356 355 355 354 353 353 353 353 352 351 351 351 351 350 349 349 349 349
329 329 328 328 329 327 327 326 326 327 321 320 327 327 326 328 327 326 324 323 326 330 337 343 344 345 347 354 362 359 353 351 349 348 346 345 345 344 344 345 345 345 344 345 346 346 346 344 344 344 345 346 342 340 341 341 340 341 344 348 350 352 353 353 352 352 352 353 353 353 354 354 354 354 354 354 354 352 352 351 351 351 350 349 348 348
328 328 328 329 328 326 326 326 327 327 323 327 330 326 326 326 326 328 322 323 324 327 336 343 343 345 346 357 366 356 349 350 350 350 347 345 344 344 345 346 346 346 345 347 349 351 348 343 340 340 342 341 340 340 339 341 343 343 345 348 350 352 353 353 353 352 352 352 352 352 353 353 354 354 354 354 354 354 353 352 351 351 349 349 348 348
326 327 328 328 327 327 327 327 327 327 326 328 327 325 328 326 327 329 322 324 325 326 333 340 340 344 348 357 359 351 350 355 355 353 348 344 345 345 346 347 348 348 349 351 352 351 346 341 339 339 339 338 339 340 341 346 349 349 348 347 348 352 354 354 353 353 353 353 353 352 352 353 353 353 353 353 353 353 353 352 351 351 350 349 348 348
325 325 327 327 328 328 327 326 325 326 326 324 326 329 326 328 337 342 338 332 322 320 328 333 336 342 343 346 350 349 355 359 355 353 349 343 344 348 349 350 351 352 353 351 349 346 344 341 339 337 338 339 339 339 343 349 351 351 350 348 349 353 356 356 356 355 355 355 354 353 353 354 354 354 353 351 352 353 353 353 352 351 351 349 348 348
325 324 326 327 328 327 326 327 325 325 325 323 327 327 321 329 342 347 348 336 320 319 327 331 334 337 337 341 347 350 353 352 349 352 350 344 344 351 353 353 354 353 349 346 345 346 347 346 342 339 338 339 337 337 342 347 349 350 351 351 353 355 357 358 356 355 355 355 354 354 354 354 354 354 353 351 351 352 352 351 351 350 350 349 347 346
325 325 325 325 327 327 326 327 326 328 329 325 326 323 319 323 327 331 333 326 320 322 328 333 336 335 336 340 345 349 346 344 343 344 345 344 345 350 350 350 351 348 344 343 345 347 348 348 347 346 344 343 340 339 344 350 352 352 350 351 352 354 355 356 354 353 355 355 354 355 354 352 353 352 350 350 351 351 350 349 349 348 347 346 345 344
323 327 327 325 326 327 327 326 324 327 328 326 324 321 319 320 318 320 323 322 324 327 327 333 336 334 336 338 343 347 344 343 342 340 343 344 345 345 344 344 345 344 343 344 344 345 346 349 351 353 353 350 345 343 346 352 355 352 349 346 345 347 350 351 350 349 354 356 355 354 353 350 350 351 350 350 350 349 348 348 346 344 343 343 342 344
319 324 328 327 325 327 328 328 327 327 328 326 326 326 323 322 319 317 320 321 326 330 331 334 334 334 335 336 340 344 342 343 343 343 344 343 342 343 343 344 343 343 346 346 345 346 347 350 352 353 354 352 346 342 343 347 350 346 342 340 338 339 341 343 346 347 351 355 354 353 352 351 350 350 349 349 348 347 347 346 344 343 343 343 343 344
319 321 328 328 327 327 327 329 330 329 329 328 328 328 323 325 327 322 320 323 327 331 333 333 333 336 337 336 341 343 342 344 344 344 346 344 344 345 344 344 344 345 348 349 348 347 347 348 349 349 352 352 348 344 342 342 344 341 336 336 338 339 338 337 339 340 342 349 353 353 352 352 351 350 349 348 348 347 345 344 343 343 344 345 345 345
319 322 331 330 327 328 326 328 331 327 329 331 326 325 325 328 332 326 322 327 333 332 331 331 330 336 340 339 342 344 344 347 344 343 348 348 348 348 347 346 346 347 350 350 350 349 349 348 348 349 350 351 351 350 348 345 344 344 341 339 338 339 340 336 334 336 338 344 350 353 354 353 353 352 351 350 348 348 347 346 345 345 346 346 346 346
322 322 331 331 328 330 328 330 334 329 329 328 322 324 331 330 331 331 326 330 337 335 334 336 333 335 339 341 346 350 349 350 348 346 350 352 351 350 349 347 347 349 350 351 352 352 351 350 350 351 351 352 352 351 349 347 344 345 346 342 338 338 339 336 334 336 342 347 349 351 353 353 353 353 352 350 350 349 349 349 348 348 348 347 347 346
327 323 329 334 329 331 333 332 333 333 330 326 323 327 331 326 326 331 327 326 333 334 336 339 338 339 340 343 350 354 353 355 354 351 352 354 352 350 349 348 347 348 349 350 352 352 353 352 351 350 349 349 350 348 347 345 345 347 349 346 342 340 338 338 337 338 343 348 349 350 351 352 352 352 351 351 350 350 349 348 348 347 347 347 346 346
329 325 326 333 332 331 338 336 330 330 332 329 330 332 332 328 325 328 330 327 328 335 338 336 337 346 351 351 355 356 356 358 356 354 354 353 352 350 349 348 348 348 349 350 351 351 351 350 347 345 342 342 345 345 344 342 344 349 350 348 344 341 339 340 341 343 347 349 350 350 350 350 350 350 350 350 350 350 349 348 348 347 347 348 347 347
333 330 324 331 335 331 333 335 330 330 331 330 331 330 330 331 328 331 335 329 327 338 342 336 338 350 356 354 356 358 358 356 354 354 354 351 350 350 349 349 348 347 348 348 349 349 348 346 345 343 342 342 344 344 343 343 345 347 347 346 344 339 337 340 342 343 347 350 351 352 351 350 351 351 351 351 350 349 349 348 348 348 348 348 348 348
331 333 329 329 331 329 332 337 333 332 333 331 330 329 327 329 330 330 331 331 332 338 341 339 343 352 357 356 358 359 355 352 353 353 353 350 349 349 348 348 347 346 346 346 346 345 345 345 344 344 343 342 341 340 339 341 342 342 342 343 343 340 337 339 341 343 347 349 350 352 353 352 352 352 351 351 351 350 350 348 348 349 348 347 348 349
335 341 335 329 332 332 332 337 333 332 337 337 333 334 331 331 332 326 325 332 333 330 336 345 347 350 355 355 355 354 351 350 352 353 352 349 347 347 347 346 346 346 345 345 344 343 343 342 341 340 338 336 332 329 328 331 334 335 336 337 338 339 339 339 342 346 348 350 351 352 353 351 350 350 349 348 349 350 351 350 349 349 349 347 347 348
339 341 335 337 355 354 340 343 344 338 340 337 335 338 333 331 333 329 330 336 332 327 334 342 344 349 354 351 348 348 349 351 352 352 350 347 345 345 346 346 346 346 344 344 344 343 342 340 337 334 331 329 325 323 322 324 331 335 334 332 331 332 333 335 342 348 349 348 349 351 350 348 346 345 346 348 349 348 349 350 349 349 349 348 347 347
334 342 344 344 351 349 339 341 343 341 343 339 336 338 335 333 335 334 339 338 331 330 334 335 339 349 354 352 348 345 345 347 351 350 347 346 345 343 344 346 346 344 343 342 341 341 339 334 330 328 327 326 323 323 322 323 332 340 339 335 331 330 330 328 335 344 347 346 346 346 346 346 344 344 345 349 351 350 348 347 346 347 348 348 348 348
335 346 352 342 333 331 332 333 332 334 340 339 336 336 334 334 333 333 336 333 328 334 339 340 345 351 352 353 352 348 344 346 349 349 348 346 344 342 342 343 343 341 339 338 337 337 334 329 327 327 329 328 324 325 326 325 329 338 340 337 332 331 332 330 331 339 343 343 342 342 342 343 343 345 346 347 349 349 348 345 345 347 348 348 348 348
343 341 349 354 346 343 346 347 342 336 333 332 333 334 335 335 333 332 333 332 335 341 344 347 351 351 351 353 352 349 349 347 345 346 349 347 342 341 340 339 338 337 336 336 335 335 333 329 328 330 331 330 328 328 330 328 327 332 338 338 334 331 331 329 329 333 335 337 339 339 339 340 340 341 342 343 344 346 345 345 346 348 348 348 349 348
344 332 336 350 345 342 348 348 339 332 328 328 329 330 332 332 332 331 327 330 341 343 342 348 352 348 349 353 350 349 352 349 343 344 349 347 342 339 338 336 335 334 333 333 333 334 332 330 330 331 331 332 331 329 331 331 328 329 334 336 335 334 332 328 327 328 328 329 335 338 339 339 339 337 335 334 335 339 342 343 344 345 347 349 348 348
342 333 330 333 331 332 336 334 331 329 326 328 329 329 331 333 335 336 334 338 347 344 343 350 353 349 349 351 349 348 348 345 342 342 346 347 342 338 336 334 333 334 334 333 334 334 334 334 332 331 332 332 332 331 331 332 330 329 332 334 334 334 333 330 328 329 329 328 332 337 339 339 339 338 336 332 328 330 335 339 341 341 343 346 347 347
341 339 334 331 330 333 333 330 330 329 326 330 332 332 335 339 340 342 341 345 351 349 348 351 351 349 349 349 346 344 341 340 341 340 342 345 343 337 335 334 334 335 336 335 334 335 335 335 333 332 334 335 333 333 333 331 329 329 331 333 334 333 332 329 326 326 328 329 331 335 337 337 337 335 335 333 328 325 327 332 336 338 339 341 343 344
334 338 340 336 331 331 333 332 329 327 329 333 335 335 338 340 341 343 342 344 347 346 345 347 349 348 345 343 342 341 339 340 340 339 339 341 341 337 334 335 335 336 336 334 333 335 336 334 333 334 336 336 335 333 332 331 331 331 331 332 332 331 331 328 324 320 321 325 329 333 335 335 334 333 331 330 326 324 325 326 330 334 337 338 339 341
333 336 341 337 329 327 332 331 327 327 331 333 334 336 339 341 341 343 345 346 346 344 344 346 348 348 344 341 341 341 340 340 340 339 338 338 338 336 334 336 336 336 335 334 333 336 336 334 334 336 337 335 333 331 330 331 333 334 333 332 331 330 329 327 323 320 318 320 325 331 333 334 334 332 329 326 325 324 325 325 326 330 333 336 337 340
339 339 336 331 326 328 332 329 327 331 334 334 334 336 340 344 344 345 346 348 346 345 347 348 347 347 344 341 343 343 339 339 340 339 339 337 337 336 335 337 336 334 334 334 333 335 336 333 334 335 333 331 329 329 330 333 334 334 334 332 330 329 328 327 323 320 319 321 325 331 333 334 334 332 329 327 326 325 325 326 327 327 329 332 335 337
340 339 334 328 325 330 335 333 336 339 334 333 335 338 342 343 342 344 345 346 346 346 347 348 348 347 344 343 345 344 339 337 338 337 337 337 335 334 334 335 335 333 333 333 333 334 334 332 331 331 328 327 328 330 332 333 333 332 331 329 329 328 327 327 324 321 321 322 326 330 332 332 332 331 329 327 327 327 326 325 326 327 327 330 333 335
340 338 333 330 328 330 334 336 339 338 334 333 336 338 340 340 339 341 341 341 344 347 346 348 349 347 344 342 342 341 338 337 337 337 336 335 332 332 332 332 331 331 332 332 332 332 332 330 329 328 327 328 329 330 332 331 330 329 328 328 328 328 327 325 322 322 323 323 324 327 329 329 329 329 328 327 327 327 327 326 325 326 326 329 332 334
342 339 335 335 331 327 328 331 333 336 336 334 335 336 336 338 339 340 339 338 340 343 347 350 349 345 344 342 340 339 339 338 336 335 333 331 330 330 330 329 329 330 331 331 331 330 329 328 328 327 328 329 330 330 330 329 328 328 328 328 327 326 325 324 323 322 323 324 325 326 327 328 328 329 329 328 327 327 327 327 326 326 327 328 329 332
341 341 336 333 329 327 329 329 332 340 340 334 334 335 335 337 339 339 340 338 336 336 340 344 344 341 341 342 341 339 337 336 335 332 330 329 329 329 328 328 328 329 329 329 329 328 327 327 328 328 329 329 329 329 329 328 328 328 328 326 325 324 325 325 326 325 324 325 326 327 327 328 329 330 330 330 329 329 328 328 327 327 328 328 328 331
336 339 335 331 332 334 331 327 331 340 340 336 335 334 333 337 337 335 338 339 336 333 334 335 336 335 334 336 338 336 333 335 336 333 329 328 329 327 327 328 328 328 328 328 328 327 328 328 328 328 328 329 328 328 328 328 327 327 326 325 326 327 327 328 329 329 328 327 328 328 328 329 329 330 331 331 331 331 330 330 329 329 329 328 327 328
333 340 343 340 336 332 328 330 337 339 338 337 335 331 332 336 335 336 340 340 336 333 332 332 332 331 330 331 331 331 332 335 336 332 328 327 328 327 327 327 327 328 328 327 328 328 327 328 328 328 328 328 328 328 328 327 327 327 327 328 328 329 330 330 331 331 330 329 329 329 329 329 330 331 331 330 331 332 331 330 330 331 330 330 329 328
342 348 351 344 336 335 338 340 340 338 336 335 332 331 333 333 334 344 345 340 335 331 330 330 330 330 329 329 330 331 332 332 332 329 327 328 328 327 327 327 327 327 327 327 327 327 327 327 327 327 327 327 327 328 328 328 328 328 329 329 330 330 331 331 331 331 331 330 330 330 329 329 330 330 330 330 330 331 330 330 330 331 332 331 331 331
344 346 348 341 335 338 345 342 336 335 336 333 331 331 331 333 343 348 342 336 331 330 329 328 328 328 328 328 329 330 330 329 328 328 327 327 327 327 327 326 326 326 327 327 327 327 327 327 327 326 327 327 328 328 328 329 329 329 329 329 330 330 331 331 331 331 331 331 330 329 329 328 328 328 328 328 328 329 329 330 330 332 332 332 332 333
338 339 343 341 335 338 345 344 339 338 334 330 330 330 330 340 347 341 334 331 329 329 329 328 327 327 328 327 327 328 327 327 327 327 327 327 327 326 326 326 326 326 326 326 326 326 326 326 326 326 326 327 328 328 328 329 329 329 329 329 330 330 330 330 331 331 331 330 329 328 327 327 327 327 327 327 327 328 329 330 331 332 332 333 333 333
334 333 336 334 333 340 346 343 340 338 332 329 333 334 334 339 340 333 328 328 329 328 328 328 327 326 327 327 327 327 327 327 327 326 327 327 327 326 326 325 325 325 325 325 326 326 326 326 326 327 327 327 328 328 328 329 329 329 329 329 330 330 330 330 330 330 329 328 327 327 327 327 328 327 327 327 327 327 328 328 330 331 331 332 332 333
334 337 339 336 335 340 341 336 334 333 329 329 333 334 332 333 331 328 328 328 328 327 327 327 327 326 326 326 327 327 326 326 326 326 326 327 326 326 325 325 325 325 325 325 325 325 326 326 327 327 327 327 327 328 328 329 329 329 329 329 330 330 330 330 329 328 328 327 328 328 328 328 327 327 327 327 327 327 327 327 328 330 329 330 330 332
331 334 337 334 332 334 335 333 331 329 327 328 329 329 328 328 327 327 328 327 327 327 326 326 326 326 326 326 326 326 326 326 326 326 326 326 326 325 325 325 325 325 325 325 325 325 325 326 326 326 327 327 328 328 328 329 329 329 329 329 329 328 328 328 328 328 328 328 328 328 327 326 326 326 326 327 327 327 327 327 327 328 328 328 329 330
328 330 332 333 331 330 331 329 328 328 328 327 328 327 327 327 326 326 327 326 327 327 326 326 326 326 326 325 324 325 325 324 325 325 325 326 325 325 326 326 325 325 325 324 324 324 324 324 325 326 327 327 328 328 328 328 329 329 328 328 327 327 327 327 328 328 328 328 328 327 326 326 325 325 326 327 327 327 327 326 327 327 327 327 327 328
330 330 332 334 333 332 332 329 327 328 328 327 327 327 326 326 326 326 326 326 326 326 325 325 325 325 325 324 323 324 324 324 324 325 324 325 325 325 325 325 324 324 324 324 324 325 325 326 327 327 327 327 327 327 328 328 328 327 327 327 326 327 327 327 327 327 327 327 327 326 326 325 325 325 326 326 327 327 326 326 326 326 327 327 327 327
331 331 333 333 333 333 332 328 325 327 327 327 327 326 326 326 326 325 326 325 325 324 324 325 325 325 324 323 323 323 324 324 325 325 324 324 324 324 323 323 323 323 324 325 326 327 327 328 328 327 327 327 327 327 327 327 327 326 326 326 326 327 327 326 326 326 326 326 325 325 325 325 325 325 326 326 326 327 326 326 326 326 327 327 327 328
331 334 332 331 334 335 333 327 327 328 327 325 326 326 325 325 324 324 324 324 323 323 323 323 323 322 322 323 324 324 324 324 323 323 323 323 322 322 322 322 322 323 324 326 327 327 327 327 327 327 327 327 326 326 326 326 325 325 325 325 326 326 326 325 325 325 324 324 324 324 324 325 325 325 326 327 326 326 326 326 326 326 327 327 328 328
334 335 333 335 338 337 332 328 328 330 327 325 325 325 324 324 323 323 323 323 322 322 322 321 321 322 323 324 325 324 323 323 322 322 322 323 323 323 323 322 323 324 325 326 327 327 327 327 327 327 326 326 326 326 325 325 324 324 324 324 324 324 323 323 323 323 322 323 323 324 324 325 325 326 326 327 326 326 326 326 326 327 327 327 328 328
333 333 336 341 339 333 328 326 326 327 326 325 324 324 324 323 323 323 322 322 322 322 322 323 323 324 324 325 324 323 323 323 323 323 323 323 323 323 323 324 324 325 326 326 326 326 326 326 326 326 325 325 324 324 323 323 323 324 323 323 322 321 321 322 322 322 322 322 323 323 324 325 325 326 326 326 326 326 326 326 326 326 327 327 328 328
Wind_Speed
4 4 5 5 8 6 6 9 4 1 2 3 4 3 5 7 6 6 5 4 11 6 1 5 6 6 9 7 4 7 13 15 16 15 14 14 14 16 16 13 10 7 6 8 9 9 8 7 9 10 10 10 8 4 5 5 7 9 10 14 15 16 20 19 18 18 19 20 19 19 20 20 18 17 17 18 18 18 17 16 16 18 18 16 15 15
2 3 7 8 11 9 8 8 1 6 5 4 3 4 2 4 5 6 4 2 6 6 4 6 9 3 2 2 4 4 9 10 14 15 12 13 14 14 12 10 8 4 4 7 9 7 5 6 10 12 12 11 9 6 7 8 9 10 9 12 15 18 21 21 20 20 20 21 20 19 19 18 17 17 17 16 16 17 17 16 16 17 17 16 15 14
4 4 10 12 12 8 6 4 5 6 4 5 3 3 4 2 2 5 3 4 5 5 1 6 10 5 4 5 5 5 4 5 11 14 13 14 14 13 11 8 7 5 4 7 8 6 4 5 10 13 13 11 9 8 10 10 7 8 7 9 13 16 19 21 21 21 22 22 21 19 17 16 17 16 16 16 16 17 17 16 16 15 16 16 15 14
4 6 12 12 8 4 4 5 7 6 4 4 5 4 5 2 3 4 3 5 6 4 6 8 9 4 5 5 6 9 7 8 8 11 14 15 12 9 8 5 5 5 3 3 3 4 5 7 10 12 13 10 10 11 12 11 9 9 9 8 10 12 16 19 21 22 22 20 18 18 17 17 18 16 15 16 18 18 17 16 15 14 15 15 15 14
6 13 15 8 4 1 2 7 6 5 5 4 4 3 4 4 2 4 2 7 8 5 8 11 8 4 5 4 4 6 6 11 11 14 15 12 10 8 7 5 4 3 6 6 6 7 7 8 9 11 11 8 9 12 12 11 10 10 9 9 10 11 13 17 19 21 21 19 17 18 18 19 20 18 17 18 18 18 17 15 14 13 13 14 14 14
8 16 15 5 4 1 3 3 2 5 4 5 3 4 5 4 2 3 8 10 8 1 4 8 7 4 5 3 2 4 5 7 7 12 13 11 11 9 6 6 5 7 11 11 10 8 7 7 8 8 6 5 8 8 9 10 10 9 8 9 11 12 13 14 15 18 19 19 18 19 20 20 20 20 19 19 17 16 16 15 14 13 12 13 14 15
6 9 8 2 4 1 4 2 2 4 5 4 4 5 5 2 1 3 8 7 5 5 5 2 6 2 5 4 3 4 5 4 4 5 7 10 12 9 7 9 9 12 16 15 11 7 5 4 4 3 3 4 5 7 6 6 6 7 8 9 10 11 12 13 13 15 17 19 20 20 21 21 21 21 20 19 18 16 16 16 16 14 12 13 14 14
3 5 7 2 1 2 3 2 3 3 4 4 7 4 2 0 1 1 3 2 5 5 4 4 7 5 2 4 3 4 3 0 3 1 2 8 12 10 10 11 11 14 15 14 12 8 6 4 3 2 1 1 3 7 7 6 6 8 10 11 10 10 11 12 13 14 15 18 20 21 21 22 22 22 21 21 19 17 17 17 16 14 13 13 13 13
2 1 5 1 4 2 2 4 3 3 3 7 7 3 4 3 2 1 1 2 2 5 4 2 8 5 2 5 3 3 0 2 2 4 4 7 13 12 12 12 11 12 11 11 10 8 8 7 5 3 1 2 5 7 7 7 9 9 10 11 11 11 11 12 14 15 15 16 18 19 20 21 21 21 21 21 20 19 18 16 14 14 14 13 13 13
3 5 7 1 3 1 5 6 4 3 3 7 4 3 5 4 2 2 2 2 1 6 5 7 6 5 2 5 3 1 1 3 4 5 3 6 10 11 13 12 10 9 9 9 8 8 10 10 9 7 4 5 8 11 11 11 11 11 10 10 10 11 12 12 13 14 16 17 17 18 18 18 18 17 18 19 19 20 18 15 13 14 14 13 13 13
9 12 10 3 4 4 5 4 4 4 5 4 6 5 6 7 5 4 1 2 2 2 5 9 5 5 2 4 2 3 3 4 5 3 1 2 6 11 13 12 10 9 10 10 10 10 10 11 12 12 9 6 8 12 15 14 13 12 11 11 12 13 14 15 15 15 16 17 18 18 17 16 14 14 16 17 17 17 17 15 14 14 15 15 13 12
7 8 7 5 6 4 1 3 4 5 4 5 5 4 5 6 5 5 5 4 4 2 2 4 5 7 3 3 5 6 5 4 5 4 4 5 9 15 14 11 10 11 12 13 12 11 11 10 11 13 12 9 7 10 13 13 12 11 11 12 13 15 17 18 18 18 18 17 17 16 16 15 13 13 15 16 16 16 16 15 14 14 15 15 14 13
6 6 5 3 5 6 2 2 5 7 6 5 4 4 4 4 4 4 4 4 4 1 1 1 5 6 2 3 4 5 2 4 6 7 10 13 16 16 14 12 12 13 13 12 11 10 10 11 11 11 10 8 8 10 12 12 12 11 12 12 13 15 17 18 20 21 20 18 16 14 14 14 13 13 14 15 15 15 15 15 14 14 15 16 16 14
5 7 4 1 1 3 4 3 1 4 3 4 2 2 2 1 2 3 2 3 3 3 2 1 6 4 2 4 1 4 6 10 13 14 18 21 20 18 16 15 15 14 14 12 10 10 10 10 10 9 8 8 10 11 12 13 13 13 12 12 13 16 18 21 25 25 23 21 18 15 12 11 12 12 13 14 15 15 15 14 14 14 14 15 15 14
2 6 3 2 2 3 3 5 6 3 2 2 4 5 2 2 3 2 2 3 3 2 1 2 5 3 2 2 3 9 14 17 20 20 21 22 20 19 19 18 17 16 15 13 11 10 8 7 6 7 7 7 8 10 11 11 11 12 13 14 16 18 20 23 28 26 21 17 15 14 11 10 11 12 12 13 13 13 14 14 14 14 13 12 12 12
1 3 5 2 5 8 5 5 4 3 1 2 2 4 1 2 5 2 1 4 4 2 2 3 2 2 3 3 5 11 15 17 20 21 20 19 17 18 17 16 17 17 15 14 12 10 7 3 3 5 7 7 5 6 7 8 9 11 12 15 19 21 21 21 22 20 15 11 8 9 10 9 10 11 12 11 11 11 12 13 15 15 14 13 12 11
2 3 6 4 1 4 5 1 5 6 1 2 3 1 3 3 7 5 2 3 4 5 2 3 3 3 4 3 4 8 10 10 14 17 18 17 18 18 16 15 16 15 14 14 13 11 7 3 4 6 7 7 6 7 7 9 11 12 10 11 15 19 20 19 16 13 11 10 8 8 9 9 10 10 11 11 11 11 12 13 14 15 15 15 13 11
3 2 7 2 5 4 3 8 13 13 6 3 3 3 3 2 5 4 3 3 4 4 1 2 4 4 3 2 2 5 7 6 7 10 15 17 18 19 17 17 16 15 14 13 12 11 7 5 6 8 9 9 9 9 10 11 13 13 11 10 13 17 18 15 13 12 12 12 10 8 8 9 10 10 10 11 11 11 12 13 13 14 15 14 13 12
4 2 7 3 4 3 7 11 10 12 10 5 1 2 1 3 2 2 3 2 2 3 0 2 2 2 3 2 0 3 5 5 5 7 10 12 14 16 16 16 15 14 13 12 12 10 8 6 6 7 9 10 11 11 11 12 13 13 12 11 14 16 15 12 11 12 12 11 9 8 8 9 10 10 10 11 11 11 13 13 13 13 13 13 13 12
3 4 4 6 4 3 6 7 3 6 9 5 3 4 3 2 1 1 2 3 4 3 2 1 2 2 3 3 3 5 4 6 7 6 7 10 12 14 15 14 14 13 13 13 13 12 10 8 6 5 6 8 10 11 11 12 13 14 14 13 14 14 12 10 9 9 11 10 7 6 5 6 8 10 10 10 10 11 12 13 12 12 12 13 13 13
3 4 1 5 6 4 3 1 3 3 4 4 5 5 3 3 1 2 1 1 4 4 3 2 1 4 4 2 4 6 5 5 8 7 8 11 14 14 14 13 13 13 13 13 14 14 13 11 9 8 7 8 9 10 12 13 15 16 16 16 15 13 11 10 9 9 10 10 8 7 7 7 8 9 10 10 10 11 11 12 12 12 13 13 13 13
2 3 2 2 4 3 2 4 3 6 5 4 2 1 0 1 2 4 2 3 2 4 4 4 2 5 4 2 3 6 6 7 11 13 12 13 15 16 15 14 12 12 13 14 15 15 14 13 12 11 10 10 11 13 13 14 16 18 18 17 16 14 11 10 9 10 10 10 9 9 10 10 10 11 13 13 13 12 11 12 12 12 14 14 13 13
1 3 4 1 1 1 5 6 3 5 4 5 2 1 2 1 3 4 1 4 1 2 2 4 2 3 4 3 4 6 9 12 15 18 15 14 16 17 16 15 14 13 14 15 15 15 15 14 13 12 12 13 14 16 16 16 17 18 18 17 15 12 11 10 10 10 10 9 8 8 10 10 11 12 13 14 15 15 15 14 13 12 14 14 13 13
2 3 3 3 4 4 6 7 5 6 6 4 2 2 2 1 1 4 3 2 1 1 2 3 0 3 4 3 4 7 11 14 16 18 17 17 17 16 16 15 14 15 15 15 15 14 14 13 12 12 13 14 15 17 17 17 17 19 19 18 15 12 9 9 10 12 11 12 12 12 10 9 11 13 13 13 14 14 15 16 15 13 13 13 13 13
2 1 3 3 4 6 7 7 7 7 4 1 3 3 2 4 2 2 1 2 1 3 4 5 2 4 4 2 4 8 11 13 14 17 18 17 17 16 15 15 15 15 14 14 13 12 12 12 12 13 13 14 15 17 19 18 17 18 19 18 16 12 9 8 9 11 13 14 16 17 15 10 8 11 14 14 13 13 13 14 15 14 12 12 13 13
2 2 4 5 2 1 2 2 3 4 3 2 3 5 4 5 4 1 2 3 1 3 4 5 3 3 2 2 5 5 8 9 11 15 16 16 16 15 15 15 13 13 12 10 10 10 10 12 12 12 13 13 13 15 20 21 18 16 17 18 15 11 8 8 10 11 13 14 15 17 18 16 11 10 12 14 15 15 14 14 15 15 13 12 12 12
3 2 3 6 6 4 5 5 5 2 2 4 6 7 7 7 6 3 3 2 4 3 2 1 5 7 5 5 6 6 6 7 9 14 16 16 17 15 14 14 12 11 10 8 8 8 8 9 10 11 13 14 14 14 18 23 21 16 14 15 14 11 10 10 10 11 12 13 14 15 16 18 16 13 13 14 15 16 15 15 16 15 15 14 13 12
4 2 1 4 5 6 7 4 4 3 3 5 7 8 9 8 5 1 1 4 6 6 1 4 7 11 8 8 7 6 6 6 8 14 17 17 17 16 14 12 10 9 8 6 6 5 4 6 10 12 13 15 16 15 17 22 23 17 13 13 12 13 14 15 13 12 12 13 14 14 15 17 17 16 15 15 15 15 15 15 15 15 15 15 14 13
5 2 4 2 2 2 1 3 4 6 6 7 11 12 9 7 6 4 1 2 6 7 4 6 8 9 8 8 7 7 9 9 10 13 16 17 18 16 14 12 10 8 7 5 4 3 4 6 9 12 11 13 16 16 19 22 23 19 14 13 13 14 17 19 18 16 16 15 13 13 14 16 18 18 17 16 15 14 13 13 14 14 14 14 14 14
4 2 5 5 5 6 7 7 7 8 8 10 13 11 8 11 11 9 7 7 9 8 6 8 8 4 4 5 6 8 12 13 12 11 12 16 19 16 13 12 10 7 5 3 2 2 4 6 7 8 8 10 13 16 19 21 20 18 16 14 16 18 20 22 21 20 20 19 16 14 14 15 17 19 19 18 18 17 14 13 13 13 13 13 13 13
4 1 3 5 5 6 7 8 8 8 9 11 13 10 9 13 10 9 9 8 9 8 6 8 9 4 2 4 10 12 14 14 12 11 10 14 20 17 14 13 10 5 2 3 3 3 2 6 7 6 5 7 12 15 17 17 16 16 16 16 19 21 23 26 26 23 22 21 19 17 16 16 17 19 20 20 19 18 17 14 13 13 13 13 12 12
3 0 2 5 5 4 5 7 8 7 9 12 13 10 7 10 8 6 6 6 6 8 8 8 6 0 2 8 14 14 14 14 12 11 11 11 12 13 13 12 8 3 1 4 4 3 3 6 5 3 4 8 12 14 14 14 14 15 15 16 19 21 24 27 28 26 25 22 19 18 17 17 18 19 20 20 19 18 18 16 14 14 13 13 13 12
2 3 1 3 3 4 6 4 6 6 8 8 8 7 5 9 11 10 10 9 6 6 7 5 3 2 2 9 11 8 11 13 11 9 8 8 5 2 2 5 3 2 3 3 2 1 1 4 3 4 8 11 12 12 12 12 12 13 14 16 18 21 24 27 29 28 26 22 19 19 18 18 20 21 21 20 18 17 17 17 16 15 14 13 12 12
2 5 1 2 2 4 7 4 6 6 6 4 6 4 7 11 14 14 11 9 8 6 4 4 3 2 5 8 8 6 9 10 10 8 7 7 7 9 9 3 2 5 3 2 6 6 4 4 6 9 11 11 10 10 10 10 10 10 13 15 18 21 24 28 30 28 24 21 20 20 21 21 22 23 22 21 19 16 16 16 17 16 15 14 13 12
3 4 1 2 3 2 3 6 6 3 3 2 4 6 10 13 17 17 13 10 8 7 7 8 6 5 8 10 10 11 11 10 9 9 11 13 13 15 15 12 11 9 5 6 8 6 4 7 10 10 11 10 9 9 8 8 9 11 14 17 20 24 27 29 29 25 22 21 21 21 22 24 25 25 24 22 19 17 16 16 16 17 16 15 13 12
5 4 1 1 1 1 1 4 3 4 2 2 3 5 6 6 9 13 13 12 9 6 6 5 5 7 10 12 13 12 10 9 11 13 15 16 17 17 17 16 15 11 7 7 6 4 7 10 9 8 8 8 7 7 8 9 11 14 17 21 25 28 28 26 25 23 22 22 22 23 23 25 26 26 25 22 20 19 18 17 16 16 15 15 14 14
7 4 2 1 0 2 2 1 2 2 2 4 3 2 4 4 3 7 9 7 10 11 10 7 5 8 9 8 9 10 10 10 12 16 18 17 15 15 15 15 14 11 8 7 7 9 11 10 7 6 6 6 7 10 13 15 17 20 22 25 27 26 25 23 22 22 22 22 22 23 24 25 26 26 24 23 21 20 19 18 16 15 14 14 15 16
5 4 3 2 0 2 3 3 3 3 1 4 6 7 5 7 10 12 11 4 8 13 16 13 9 11 13 12 9 10 11 10 6 11 17 17 14 14 14 14 13 13 12 12 13 13 12 10 9 8 8 10 13 16 19 21 22 24 25 25 24 23 23 23 21 20 21 22 23 24 25 26 26 25 24 23 22 20 19 18 17 16 15 14 15 17
7 4 5 4 2 3 4 3 2 2 2 5 7 10 11 2 9 10 11 5 6 10 16 16 13 13 16 17 17 15 12 5 3 9 16 17 15 16 16 15 13 12 12 14 15 14 12 12 13 13 14 17 19 21 22 23 24 25 24 23 23 23 24 23 21 20 21 22 23 24 25 26 25 25 25 25 23 20 20 20 19 17 16 15 14 15
6 4 4 4 2 3 3 3 2 2 2 5 7 11 16 7 6 7 6 2 6 11 17 19 16 15 17 18 17 13 7 2 3 8 13 14 14 15 15 15 16 16 15 16 16 15 15 16 16 17 19 21 21 22 22 22 23 23 23 23 23 23 22 21 20 20 20 22 23 24 24 25 25 26 26 26 24 23 22 22 20 18 17 15 14 14
4 3 4 4 2 3 4 3 1 1 2 4 7 14 16 7 6 6 2 2 5 12 18 20 18 17 17 17 14 9 6 6 7 8 11 13 14 14 14 16 17 16 15 15 16 16 17 18 19 19 20 20 20 20 21 21 22 22 23 23 22 20 20 20 20 20 21 22 23 24 24 25 26 27 27 26 26 26 25 24 22 20 18 16 15 14
2 3 3 2 2 2 3 3 1 0 3 6 8 16 16 5 3 3 5 5 10 14 16 17 16 15 15 15 13 11 10 10 10 10 11 13 15 15 14 14 15 15 14 15 16 17 18 18 19 19 20 20 19 19 20 21 22 23 23 22 19 18 19 20 20 21 22 23 24 25 26 26 26 26 26 26 26 26 25 24 23 22 20 18 16 15
2 2 2 2 2 2 3 5 3 1 7 9 5 8 12 5 7 8 9 11 13 14 14 14 14 14 14 13 12 12 10 11 13 14 13 13 14 16 15 15 15 15 15 15 15 16 17 17 18 18 18 19 20 21 22 23 23 22 21 19 18 19 19 20 21 22 24 25 26 27 26 25 25 24 24 24 25 25 25 25 23 22 20 19 17 17
1 1 1 2 2 2 3 3 1 2 7 13 11 6 7 10 13 12 13 13 12 11 11 11 10 11 12 12 11 10 11 13 14 15 13 13 15 16 16 15 13 13 14 15 16 16 16 17 18 18 18 20 22 23 23 21 20 20 19 18 18 19 20 21 23 24 25 26 25 24 23 23 23 23 23 23 23 24 25 25 24 23 22 20 18 17
1 6 9 5 4 5 5 3 5 8 15 22 22 18 16 17 15 14 15 14 13 12 11 11 11 10 11 11 11 10 12 13 13 13 13 13 15 15 12 10 10 11 13 15 16 17 18 18 19 19 20 21 22 21 20 18 17 18 18 18 19 20 21 23 24 25 25 24 22 21 21 22 22 22 22 22 22 23 24 24 25 25 24 23 20 18
4 12 14 8 6 10 11 9 12 16 19 20 21 20 18 17 14 14 14 13 12 11 11 11 11 10 10 12 12 12 13 14 14 13 13 11 10 8 7 7 10 12 14 16 18 20 20 19 19 19 19 19 18 18 17 16 17 17 17 18 19 21 22 23 23 23 23 21 20 20 21 22 22 22 22 22 22 23 23 24 24 25 25 24 22 20
6 12 10 4 4 6 6 5 9 14 16 17 17 16 15 14 13 13 13 11 10 10 10 10 9 9 10 12 14 14 14 15 14 12 9 7 7 6 8 11 14 16 18 19 19 19 18 17 16 16 16 16 16 15 16 16 16 16 16 18 20 21 21 21 21 22 21 20 21 21 22 23 23 23 23 23 23 23 24 24 24 24 24 24 23 22
4 10 8 4 4 5 4 6 11 16 17 17 16 15 13 12 11 11 11 9 9 10 9 8 8 10 11 13 14 13 11 11 10 10 9 9 10 12 14 16 17 18 19 17 16 16 15 14 14 14 13 14 14 15 16 17 16 16 17 19 19 19 20 20 21 21 21 21 22 23 24 24 24 24 24 24 23 24 24 25 25 25 24 23 22 22
2 5 5 4 5 6 4 5 9 14 14 14 15 15 14 12 11 11 10 8 8 10 9 8 9 11 12 11 10 9 8 8 9 11 13 14 15 16 17 17 18 18 17 15 14 13 13 13 14 13 13 14 16 17 18 17 16 17 18 19 19 18 19 20 20 21 22 22 23 24 24 24 24 24 24 24 24 24 24 24 25 26 25 23 20 19
5 3 3 5 5 2 0 1 5 7 6 9 12 12 10 10 10 10 9 9 10 11 12 12 11 9 8 7 6 7 9 11 12 13 13 15 16 15 15 16 16 16 15 13 12 11 12 13 14 14 14 16 17 18 17 16 17 18 18 18 19 18 18 19 20 21 21 22 22 23 23 23 23 23 24 24 25 26 25 25 24 24 24 23 20 17
7 4 3 6 5 3 5 9 13 12 9 10 12 11 8 9 9 9 10 10 11 12 12 12 10 9 8 8 10 12 14 15 15 14 13 14 14 14 14 14 14 13 13 12 11 12 14 15 15 15 16 17 17 16 16 15 16 17 18 19 19 18 16 16 18 20 21 21 20 21 21 22 22 23 24 24 24 25 26 27 26 25 24 23 21 19
Wind_Direction
259 259 276 257 257 256 268 251 208 44 3 58 9 21 124 173 216 226 246 223 160 139 12 147 132 144 167 182 152 162 177 166 165 175 177 179 184 187 189 192 200 216 213 199 201 205 211 216 213 212 214 218 227 229 210 234 254 236 245 255 240 225 230 239 244 245 243 243 246 244 246 252 253 253 252 253 255 255 255 255 255 256 254 250 253 257
320 261 263 251 254 250 257 261 64 41 1 18 27 0 32 168 217 235 234 230 133 93 4 114 104 84 146 85 43 128 157 160 171 169 170 180 175 173 178 183 189 195 187 187 192 192 193 209 211 213 219 225 230 237 240 250 254 245 256 262 242 230 231 238 245 247 247 249 252 253 256 260 259 257 256 258 262 264 261 257 257 259 257 254 254 258
337 273 259 254 259 259 261 281 42 38 0 355 358 11 327 259 242 282 313 36 75 82 43 103 94 46 20 48 25 24 77 149 180 171 172 183 175 169 175 180 187 187 184 192 200 203 206 216 214 220 232 236 235 246 255 257 256 247 259 264 244 235 235 239 244 248 250 252 255 258 261 263 261 259 262 264 264 263 261 257 257 259 260 259 258 259
300 260 257 256 269 287 300 337 22 10 8 11 338 337 305 252 151 270 305 45 47 90 135 108 88 53 14 24 21 19 50 100 146 159 164 175 175 178 182 184 199 179 146 164 183 184 201 216 213 218 229 238 252 259 256 257 263 255 252 257 249 248 249 246 247 251 252 253 259 264 265 263 257 255 259 260 256 255 257 258 258 260 263 264 263 263
249 253 260 272 299 285 2 355 30 31 354 344 304 279 285 285 210 219 146 87 63 69 126 106 72 0 353 10 7 7 55 88 108 130 140 158 164 172 180 173 185 136 90 93 109 134 171 197 200 207 221 245 271 266 259 265 274 271 266 264 261 263 261 253 252 254 254 257 263 264 263 259 254 251 250 251 252 255 259 264 266 267 268 269 269 268
252 264 274 298 308 179 87 345 74 88 358 326 285 238 235 259 266 145 119 105 88 102 192 116 80 313 313 339 300 331 13 55 85 117 124 137 147 156 159 132 121 89 77 87 110 141 167 182 192 204 233 280 294 284 273 276 286 296 295 284 276 273 270 265 261 258 258 262 264 262 262 261 258 258 258 259 262 263 268 274 273 270 266 267 270 271
262 282 303 315 263 289 64 334 287 70 22 324 264 227 211 181 46 113 126 117 130 175 238 108 110 208 299 298 268 328 345 18 56 107 127 135 144 156 140 108 93 84 79 83 97 119 140 153 188 217 265 281 308 320 305 293 314 327 320 308 294 285 280 281 279 271 266 265 265 265 267 267 265 267 272 274 271 270 274 273 270 267 263 264 266 271
252 308 329 15 112 25 42 311 291 63 69 275 247 214 228 86 52 226 127 130 178 148 7 16 112 128 267 265 293 352 323 54 80 155 189 139 146 151 125 103 87 82 79 79 82 82 85 90 107 118 217 228 358 345 337 339 346 341 333 328 321 305 287 283 286 285 279 272 268 267 269 269 268 272 277 276 270 268 270 269 269 269 268 268 268 270
184 207 286 348 66 28 212 215 233 89 109 242 238 224 284 274 211 232 71 283 229 98 48 69 109 98 267 269 321 16 252 191 151 214 219 149 148 139 115 102 88 84 80 71 67 63 65 66 74 74 15 17 12 353 353 356 351 345 337 331 328 323 307 291 286 284 283 279 273 270 269 268 268 272 276 274 269 267 264 264 269 272 272 275 275 271
256 241 254 165 86 256 225 213 188 139 230 257 273 323 327 335 353 28 113 242 346 84 145 187 140 117 234 276 297 81 219 237 225 233 225 163 149 127 111 106 99 97 87 69 60 65 70 63 55 45 11 336 337 347 7 16 10 0 344 329 325 327 324 310 297 288 283 280 278 276 272 268 268 271 273 272 270 268 265 263 267 272 275 278 279 272
266 270 272 226 185 217 230 234 211 212 247 308 358 5 357 351 359 16 51 139 60 57 185 191 160 118 171 262 243 201 220 200 196 209 200 158 129 108 105 108 109 103 89 82 78 77 76 65 56 53 43 12 353 0 11 19 19 12 358 348 340 338 335 325 312 301 290 282 282 280 274 271 273 277 280 279 276 275 273 270 270 271 272 273 274 269
302 286 272 234 213 209 267 298 291 301 328 11 13 24 2 332 356 12 354 46 67 344 256 168 107 83 106 242 235 231 230 162 153 163 137 115 104 101 105 109 106 97 91 91 88 79 74 69 64 63 59 49 35 19 14 19 25 25 21 10 357 350 343 331 317 306 297 292 289 284 281 283 286 286 284 285 282 279 278 276 272 267 265 265 265 262
314 269 247 240 220 198 141 334 316 337 15 30 0 22 16 326 354 358 339 35 73 85 322 119 80 72 45 269 220 208 183 109 119 138 131 115 108 109 110 105 98 97 97 93 81 68 63 65 66 62 56 49 36 19 14 23 31 33 33 26 11 360 350 338 325 312 308 310 304 295 294 294 291 286 283 284 281 277 277 277 272 267 265 265 265 261
310 291 264 101 258 202 133 120 306 319 19 59 45 76 95 104 30 319 304 50 92 143 169 69 73 78 318 326 23 111 97 106 115 123 123 115 112 112 108 101 99 98 94 86 76 65 57 57 64 63 49 34 23 15 14 23 29 28 27 28 21 12 3 349 337 325 319 322 320 313 306 297 290 284 281 283 281 277 275 275 274 271 267 267 267 264
288 314 285 142 196 188 151 170 177 182 137 139 173 149 129 152 138 248 240 126 139 176 264 8 61 122 188 11 55 97 98 100 106 115 117 112 111 111 106 102 99 94 86 82 80 80 74 61 62 68 57 38 23 14 12 17 22 19 19 24 24 23 16 360 349 341 330 324 322 317 309 298 290 285 280 280 279 277 273 272 273 271 271 273 272 266
129 299 269 241 195 176 191 221 168 107 57 236 169 107 29 204 144 121 124 126 133 132 344 5 60 138 125 57 46 87 91 87 93 101 104 104 105 104 105 103 95 88 87 87 88 96 105 81 37 44 52 50 33 10 9 20 22 18 25 32 30 31 31 17 5 358 343 328 317 310 305 295 288 283 278 276 275 274 270 269 270 273 277 278 274 268
57 306 282 327 10 200 218 222 55 41 276 257 35 54 252 185 126 107 54 37 67 94 39 32 98 103 84 66 24 66 81 78 84 88 86 89 92 88 91 96 93 89 90 89 89 94 97 64 20 16 25 30 18 1 4 18 17 13 25 46 45 43 44 35 20 10 354 341 332 316 306 298 292 285 279 274 271 268 267 268 271 275 279 279 277 270
141 318 287 347 46 332 348 55 40 29 50 66 356 271 258 56 87 108 103 26 36 87 11 18 115 143 125 121 347 57 82 77 77 83 81 82 85 82 82 90 94 92 92 89 87 88 79 48 14 360 1 10 17 16 17 22 16 11 21 51 58 51 48 37 17 5 358 350 343 330 319 308 298 288 281 278 274 270 270 272 273 275 278 280 281 273
128 54 297 328 57 349 19 52 34 10 30 65 254 261 71 59 15 25 96 102 68 101 275 350 48 169 173 184 235 84 99 100 92 90 85 79 81 84 87 93 97 95 92 87 84 84 79 61 26 2 359 11 25 28 25 23 20 22 33 45 48 47 45 34 14 1 353 349 344 333 327 315 298 284 278 275 273 273 274 276 277 275 277 282 283 279
96 105 287 322 355 334 14 47 52 351 6 31 25 12 51 121 156 87 122 134 123 135 168 26 355 278 221 207 160 138 138 124 109 96 94 92 89 91 93 94 95 93 89 86 86 89 90 86 71 42 19 14 25 33 32 27 25 28 32 32 34 40 40 26 8 346 335 338 335 316 308 303 293 284 278 274 272 274 277 280 281 278 279 282 284 283
47 90 202 311 337 8 11 19 119 75 22 28 23 6 357 349 18 71 47 95 116 133 150 137 243 263 252 224 154 146 146 128 118 110 107 104 98 97 96 94 91 90 91 93 94 94 93 90 83 71 55 39 38 43 44 40 39 37 32 29 29 30 28 15 354 326 318 324 319 302 291 283 284 288 288 285 282 280 280 281 282 282 283 283 283 283
30 94 115 325 357 40 285 262 122 109 123 111 73 6 351 339 78 77 354 307 99 122 152 152 192 259 258 213 156 147 140 131 122 116 114 111 106 103 100 98 96 95 95 95 94 93 91 86 79 73 66 61 54 51 51 49 47 45 40 38 35 28 24 13 350 332 327 324 310 294 287 284 288 297 300 298 294 290 286 283 283 286 287 288 289 284
92 99 83 10 330 147 280 294 35 77 97 102 93 121 112 115 100 94 273 274 33 79 135 124 140 259 254 198 166 151 142 134 124 120 121 118 112 108 104 101 99 98 96 92 89 88 85 82 77 71 65 62 53 47 48 49 48 48 46 46 46 39 31 16 358 351 343 333 325 308 297 301 310 310 307 305 300 296 293 291 292 292 291 293 293 288
35 69 64 334 306 315 318 328 5 23 45 59 342 356 72 300 134 130 194 206 136 188 130 85 120 257 264 220 146 128 132 134 128 124 124 119 112 109 109 106 101 98 94 90 87 83 80 76 70 64 56 50 43 35 35 41 44 48 49 48 47 40 26 8 360 359 349 340 347 347 338 333 327 315 306 301 298 297 298 301 303 301 298 298 296 293
27 74 78 45 357 350 346 347 352 351 13 54 284 285 249 255 276 65 84 82 58 232 155 126 199 251 264 221 115 104 117 130 137 134 128 123 116 111 112 112 106 100 94 89 86 80 74 69 60 53 44 36 34 32 32 34 39 47 49 46 43 31 8 348 347 356 354 347 351 1 8 7 341 318 311 305 302 305 307 308 307 301 298 300 298 298
109 138 105 101 101 14 342 309 294 304 318 320 291 280 267 261 268 303 80 91 229 236 138 135 187 240 257 167 126 122 122 125 141 143 136 128 121 117 114 111 106 100 93 86 82 76 70 66 57 47 37 27 25 28 30 29 30 40 45 44 44 36 5 335 326 337 349 350 352 0 10 16 8 341 326 319 318 321 318 308 303 298 292 291 292 294
106 99 134 138 145 180 191 222 243 263 303 292 289 284 278 272 258 213 119 161 193 158 73 197 165 149 178 183 162 166 147 129 140 145 143 138 130 126 120 112 105 97 91 85 80 73 68 61 43 31 26 21 17 16 19 20 20 28 40 42 44 41 22 355 332 327 334 343 348 353 0 7 7 359 349 340 337 336 330 318 310 303 296 293 291 291
97 30 282 149 155 196 191 221 278 335 321 294 316 310 294 295 292 252 225 220 166 117 8 256 160 145 176 195 178 174 160 144 145 146 151 151 140 131 126 118 113 103 90 78 70 56 48 43 25 14 14 15 13 8 6 9 10 15 31 35 31 28 19 8 354 341 335 337 343 349 354 356 354 352 351 349 348 349 344 337 329 319 308 302 298 294
114 44 346 39 22 286 11 11 353 10 0 355 0 348 342 11 46 73 348 198 136 128 177 195 158 150 175 190 183 178 164 151 144 142 150 156 147 137 135 134 129 121 103 83 69 37 24 25 15 10 6 3 5 1 357 359 0 3 13 18 15 11 6 3 357 350 348 347 346 350 353 351 345 342 342 343 345 349 348 346 343 337 327 316 307 300
98 32 353 34 27 350 356 6 18 29 23 17 10 2 32 60 66 70 67 78 92 102 136 144 130 128 181 192 177 162 150 140 133 132 146 159 155 145 144 148 144 135 118 75 43 357 7 14 6 1 353 351 358 357 352 353 353 353 356 0 2 357 355 356 353 349 349 349 350 351 348 344 340 338 339 340 340 340 340 340 340 341 340 332 322 312
69 339 322 58 43 341 335 352 12 39 49 34 16 11 60 73 60 57 69 76 79 83 97 105 96 56 346 123 121 126 131 126 117 111 120 147 157 157 159 163 162 153 116 21 335 273 331 9 1 347 335 344 356 355 351 351 351 350 349 350 350 348 346 347 346 344 343 342 344 347 346 344 338 334 336 338 337 335 334 334 332 333 337 339 338 329
64 274 327 59 49 310 310 351 7 40 59 43 18 1 38 72 64 46 42 44 84 108 99 88 97 42 342 95 102 107 113 108 100 96 91 104 139 157 166 174 179 181 262 319 314 268 325 357 352 331 338 350 357 356 353 351 348 346 345 345 342 340 339 338 338 338 336 335 338 341 343 343 337 332 334 336 336 333 329 329 330 329 329 334 341 341
92 99 60 71 64 290 293 355 20 40 49 29 354 343 30 72 73 61 43 26 39 99 114 115 150 219 80 92 92 86 93 94 88 88 79 70 83 102 222 217 226 329 318 313 22 107 32 11 17 8 1 357 357 356 349 344 341 339 339 337 334 334 334 333 332 331 329 329 333 336 336 335 332 330 331 335 337 333 325 324 327 328 328 330 335 339
92 100 125 128 111 274 288 359 38 55 64 18 331 6 70 83 78 71 58 40 37 57 95 107 98 72 74 90 99 99 98 97 92 84 62 43 30 13 5 355 5 8 2 108 100 112 113 53 26 11 5 358 351 344 337 335 335 334 331 327 326 328 329 327 326 324 323 323 325 328 328 327 327 327 327 330 334 334 328 323 322 324 327 327 329 331
87 99 123 121 122 240 312 36 51 80 90 22 357 55 81 88 86 77 57 36 42 64 79 78 72 70 82 93 104 109 106 100 91 70 44 38 43 45 46 48 45 44 81 115 106 107 77 27 12 4 360 352 344 340 336 335 331 325 322 321 323 326 325 322 320 318 317 317 318 320 322 323 325 326 327 328 329 329 328 324 319 318 321 322 322 321
117 114 121 99 138 199 32 60 122 169 143 51 58 74 71 71 79 76 53 22 16 51 80 78 69 74 87 98 103 103 104 98 75 52 42 46 54 57 52 40 33 46 88 108 98 75 29 13 7 3 358 356 357 351 343 336 328 324 322 322 323 323 321 319 316 313 313 313 314 316 320 322 323 325 328 329 327 325 324 322 318 315 316 315 311 309
122 117 96 47 149 156 128 100 124 131 27 16 359 345 35 50 73 90 81 30 13 41 65 63 43 48 62 88 105 102 96 87 61 36 35 44 46 43 41 36 33 40 58 61 44 34 28 23 21 17 11 10 2 347 341 336 331 328 325 323 321 320 320 322 318 312 310 310 312 314 316 318 319 322 326 329 328 326 323 321 318 315 312 308 304 305
106 127 135 130 162 87 101 89 68 74 347 315 296 306 16 91 114 100 88 49 5 42 68 72 53 47 51 55 71 84 78 70 36 11 25 35 34 29 30 31 32 34 35 28 22 25 30 29 24 17 6 356 347 340 339 336 331 329 326 324 324 324 325 326 321 314 310 309 310 312 313 315 317 320 324 326 328 328 326 323 319 314 310 305 300 301
57 74 101 101 43 34 85 105 102 145 221 279 286 313 342 35 145 108 74 47 344 24 64 76 67 61 61 55 54 61 64 55 331 352 16 23 21 19 14 9 9 10 7 4 3 5 7 2 359 354 346 343 340 337 336 333 329 329 329 328 327 324 323 323 320 316 312 310 310 311 312 314 316 319 322 323 323 325 325 324 321 316 311 305 299 296
35 34 56 67 28 12 86 106 101 145 231 286 294 325 340 352 127 101 66 27 351 25 58 70 65 58 57 56 54 53 50 35 347 358 7 11 13 16 13 6 1 354 349 350 348 346 346 344 343 341 340 340 338 335 333 330 329 330 329 326 324 320 319 318 317 316 313 310 310 311 313 315 316 317 318 318 317 317 318 319 318 316 311 304 298 293
25 35 61 88 68 42 88 107 109 169 240 290 332 352 351 4 73 76 141 198 46 55 63 63 60 54 49 51 53 44 31 38 31 10 8 10 9 9 8 5 2 356 353 351 346 342 341 340 339 340 339 338 336 332 330 328 326 326 323 321 320 318 317 317 317 317 314 312 313 314 315 315 315 314 314 314 313 314 315 317 316 314 311 304 297 291
9 17 23 68 67 59 100 106 106 60 322 310 341 9 12 26 107 119 154 122 74 73 68 59 56 50 41 39 37 28 25 28 19 10 11 7 2 360 358 360 3 360 354 351 348 346 343 340 337 334 331 330 328 326 324 322 321 320 319 320 320 317 316 317 316 315 314 313 314 314 314 314 314 313 312 311 311 312 314 316 317 316 314 309 300 292
93 70 14 23 53 70 68 51 70 259 330 335 328 360 15 64 155 151 121 92 77 77 69 59 54 44 35 28 18 9 7 2 356 356 356 355 355 352 346 347 351 348 344 344 344 343 340 336 332 328 325 323 322 320 320 319 318 318 318 319 317 315 314 314 313 313 313 314 315 315 315 315 316 315 313 311 310 310 310 311 314 315 315 313 307 300
35 123 198 283 4 83 95 53 148 211 21 48 86 99 69 100 125 121 101 88 80 74 64 57 52 40 30 23 14 9 3 356 352 351 347 342 342 339 337 340 343 339 337 338 337 336 333 330 328 325 321 320 319 318 319 319 318 317 317 317 315 314 313 313 312 313 314 316 317 317 316 317 318 317 314 312 311 311 309 308 308 309 310 311 309 304
356 110 109 89 48 78 97 107 118 94 70 74 89 99 99 101 99 92 89 86 78 69 62 55 46 35 28 23 18 14 6 356 349 345 339 333 333 335 339 342 340 337 333 330 327 326 323 322 324 322 319 319 318 318 320 320 317 316 317 316 316 315 314 314 313 314 316 317 317 318 318 320 320 319 317 317 318 317 315 312 308 306 306 307 306 303
65 104 100 92 90 82 72 80 97 93 88 89 91 92 94 93 85 80 80 75 66 56 47 39 31 26 23 14 5 1 357 349 340 335 335 336 339 345 350 341 333 331 328 325 324 322 319 319 320 320 320 320 319 318 320 317 315 317 318 317 316 315 314 314 313 315 316 316 316 318 320 321 322 323 323 323 323 322 321 319 315 310 306 304 304 302
48 84 84 76 103 91 71 80 99 100 100 96 90 86 84 79 74 71 67 60 50 35 25 22 17 10 3 355 350 349 348 344 341 342 349 357 354 344 338 333 330 330 330 328 327 325 324 324 325 327 329 327 323 320 317 314 316 321 320 316 315 314 313 313 314 315 316 317 318 319 319 320 322 324 324 324 324 323 322 322 321 317 310 305 302 301
47 75 76 67 70 86 124 129 100 96 99 96 89 86 83 76 70 64 58 50 37 27 24 21 8 356 352 349 346 346 348 350 353 355 355 354 347 340 338 334 331 331 330 328 328 330 330 330 331 333 332 327 324 320 317 318 322 323 318 315 315 314 314 314 315 317 318 318 318 319 319 321 322 323 322 322 323 323 323 324 324 320 315 310 306 302
35 72 76 88 76 72 106 125 96 89 87 84 84 84 80 78 75 64 56 45 32 27 22 11 356 348 349 351 349 350 358 3 359 352 347 343 340 339 337 334 331 331 330 328 332 336 334 332 335 334 327 321 320 320 322 325 324 319 315 314 314 314 315 315 316 318 318 317 318 320 322 323 322 322 322 323 324 324 324 326 326 323 317 311 307 302
54 76 62 83 95 82 40 148 112 107 100 89 90 87 77 72 68 53 41 33 25 16 5 358 354 352 1 12 8 3 4 1 354 349 344 341 341 341 339 336 335 336 336 336 337 336 333 334 336 333 328 325 323 322 326 327 321 316 313 312 312 313 313 314 317 317 316 318 321 324 325 324 323 323 324 325 327 326 324 323 325 326 323 317 310 303
74 117 119 114 126 139 135 121 109 108 116 108 97 89 74 62 53 40 32 26 18 13 12 15 19 23 27 21 5 358 357 355 352 351 347 344 346 347 346 344 345 347 346 344 341 338 337 336 335 333 332 330 326 327 329 326 318 313 312 312 314 316 316 319 321 319 318 321 324 326 327 326 324 324 325 327 330 330 328 326 326 328 329 325 317 309